Location: Ferintosh
(52.7647°N, 112.9692°W)
Time: 20:47:53
(UTC+00:00)

Transit 2A - Pass Details

Date: 20 May 2024
Orbit: 593 x 959 km, 66.7° (Epoch: 12 June)

Event Time Altitude Azimuth Distance (km) Brightness Sun altitude
Rises 05:55:42 0° 175° (S) 2,918 - -14.4°
Reaches altitude 10° 05:58:17 10° 160° (SSE) 2,062 - -14.6°
Exits shadow 06:00:40 20° 131° (SE) 1,540 7.1 -14.7°
Maximum altitude 06:01:52 22° 110° (ESE) 1,478 7.1 -14.8°
Drops below altitude 10° 06:05:44 10° 60° (ENE) 2,238 8.5 -15.0°
Sets 06:08:39 0° 46° (NE) 3,239 9.6 -15.1°
